Regional Weather Roundup
Issued by NWS Jackson, KY

Home | Current Version | Previous Version | Text Only | Print | Product List | Glossary Off
Versions: 1 2 3 4 5 6 7 8 9 10 11 12 13 14 15 16 17 18 19 20 21 22 23 24 25 26 27 28 29 30 31 32 33 34 35 36 37 38 39 40 41 42 43 44 45 46 47 48 49 50

000
ASUS43 KJKL 241719
RWRJKL

EAST KENTUCKY HOURLY WEATHER ROUNDUP
NATIONAL WEATHER SERVICE JACKSON KY
100 PM EDT THU JUL 24 2014

NOTE: "FAIR" INDICATES FEW OR NO CLOUDS BELOW 12,000 FEET WITH
NO SIGNIFICANT WEATHER AND/OR OBSTRUCTIONS TO VISIBILITY.

* THESE REPORTS ARE NOT UNDER NWS QUALITY CONTROL AND MAY NOT
  REPORT WEATHER SUCH AS PRECIPITATION AND FOG.

KYZ079-080-083-085-087-088-110-112-115-119-120-241800
...EASTERN KENTUCKY...

CITY           SKY/WX    TMP DP  RH WIND       PRES   REMARKS
JACKSON        CLOUDY    65  63  93 N6        30.03R FOG
LONDON         CLOUDY    71  66  84 N8        30.02R
SOMERSET*      CLOUDY    68  66  94 N6        30.04S
MONTICELLO*    PTSUNNY   72  69  90 NW7       30.04S FOG
WILLIAMSBURG*    N/A     72  72 100 CALM      30.01S
MIDDLESBORO*   PTSUNNY   82  68  63 W6        29.99F
HARLAN APT*    CLOUDY    72  70  94 MISG      30.01S
HAZARD APT*    CLOUDY    68  68 100 N6        30.01R
BLACK MTN*       N/A     66  64  94 NE2         N/A
PIKEVILLE APT* DRZL/FOG  64  64 100 N9        30.00S VSB 1/4
BIG SANDY*     DRIZZLE   64  64  99 N8        30.01S
MOREHEAD APT*  CLOUDY    66  61  82 VRB6G15   30.07R
ASHLAND*       CLOUDY    66  59  77 N5        30.02R
$$

KYZ035-036-041-042-044-050-067-078-099-241800
...CENTRAL KENTUCKY...

CITY           SKY/WX    TMP DP  RH WIND       PRES   REMARKS
MT STERLING*   CLOUDY    66  61  82 NE9       30.06S
FLEMING/MASON* CLOUDY    68  59  72 NE6       30.06S
DANVILLE*      CLOUDY    70  63  78 N10       30.06R
RICHMOND*      CLOUDY    68  61  77 N9        30.04S
LEXINGTON      CLOUDY    71  59  65 N9        30.06R
FRANKFORT      PTSUNNY   72  56  57 N10G17    30.05S
$$

KYZ091>093-OHZ055-061-077-WVZ005-015-034-035-042-241800
...SOUTHERN OHIO/WEST VIRGINIA...

CITY           SKY/WX    TMP DP  RH WIND       PRES   REMARKS
COVINGTON      MOSUNNY   72  54  53 N13       30.07S
COLUMBUS       MOSUNNY   76  53  44 N14       30.05R
DAYTON         PTSUNNY   71  54  54 N9        30.09F
WILMINGTON     MOSUNNY   72  55  55 N16G23    30.06F
HUNTINGTON     LGT RAIN  64  64 100 N5        30.02R VSB 1
CHARLESTON     LGT RAIN  66  65  96 N6        29.99S
PINEVILLE*     PTSUNNY   80  71  74 MISG      30.03S
BECKLEY        LGT RAIN  74  66  76 NW13      30.00F
BLUEFIELD      MOSUNNY   81  63  54 NW9G17    30.02F
$$

VAZ002-007-008-TNZ017-027-036-066-071-241800
...SOUTHWEST VIRGINIA/EAST TENNESSEE...

CITY           SKY/WX    TMP DP  RH WIND       PRES   REMARKS
WISE*          CLOUDY    73  64  73 NW6       30.04F
JONESVILLE*    MOSUNNY   79  68  69 SW7       30.01S
ABINGDON*      PTSUNNY   81  68  64 W9        30.00F
BRISTOL        MOSUNNY   82  67  60 W10       29.99S
KNOXVILLE      PTSUNNY   80  69  69 W8        29.98S
OAK RIDGE      MOSUNNY   83  68  60 VRB7      29.99F
CROSSVILLE     PTSUNNY   76  66  71 W7        30.05F
NASHVILLE      CLOUDY    76  66  71 NW10      30.03S
$$

...KEY TO REMARKS...
VSB - VISIBILITY IN MILES
WCI - WIND CHILL INDEX
HX  - HEAT INDEX

$$


USA.gov is the U.S. government's official web portal to all federal, state and local government web resources and services.